Погода Паданы

Поиск расширенной информации на нашем сайте:

Полезная информация:

Новости сайта



02.01.2020
Опубликован Долгосрочный прогноз погоды по городам России и ближнего зарубежья на январь 2020 года.
Карты: Прогноз на январь и февраль 2020 года, Сравнение прогнозируемой аномалии приземной температуры воздуха на январь 2020 года по разным моделям.




Погода Паданы - сегодня

Время (UTC), дата Ветер
(°,м/с) 
Видим.   Явления Облачность Т
(°С)
Тd
(°С)
f(%) Тe
(°С)
Pmin
(гПа)
dP
(гПа)
Po
(мм)
O2
(г/м3)
Тmin Tmax R s Состояние
почвы
00 29.11.20 190 (Ю) 4000 м  слаб. снег  10/10 210 м 
[Frnb|Ns]
-4.2 -5 94 -4  1035.5  0.3  764  313           
03 29.11.20 190 (Ю) 20000 м  {снег}  10/10 240 м 
[St]
-4.7 -5.5 94 -6  1035.7  0.1  764  314  -4.8    0.7     
06 29.11.20 200 (Ю) 20000 м  {снег}  10/10 210 м 
[St]
-4.8 -5.5 95 -4  1035.3  -0.4  764  314  -4.9    0.4  равномерный
сухой снег
100% 
09 29.11.20 190 (Ю) 9000 м  снежные зёрна  10/10 240 м 
[St]
-4.4 -5.4 93 -6  1035.4  0.2  764  314           
12 29.11.20 190 (Ю) 17000 м  {снег}  10/10 360 м 
[St]
-3.5 -5 89 -3  1034.5  -0.9  763  312           
15 29.11.20 180 (Ю) 20000 м    10/10 300 м 
[St]
-3.1 -4.4 91 -3  1033.5  -0.9  763  311      0.3     
18 29.11.20 180 (Ю) 10 км    10/10 180 м 
[St]
-3.3 -4 95 -3  1033  -0.5  762  311    -3  0.3     
21 29.11.20 160 (Ю) 20000 м  в посл. час переохл. осадки (гололёд){снег, морось}  10/10 240 м 
[St]
-2.5 -3.4 94 -4  1032  -1  762  310           
00 30.11.20 140 (ЮВ) 4000 м  дымка{снег, морось}  10/10 150 м 
[St]
-2.2 -2.8 96 -3  1030.3  -1.6  760  309           
03 30.11.20 130 (ЮВ) 1000 м  дымка [диам. гололёда 1 мм]  10/10 120 м 
[St]
-1.9 -2.2 98 -4  1028.8  -1.5  759  308  -3.4    0.4     
06 30.11.20 140 (ЮВ) 4000 м  снежные зёрна [диам. гололёда 1 мм]  10/10 120 м 
[St]
-1.5 -1.9 97 -4  1026.7  -2  758  307  -3.3    0.4  равномерный
сухой снег
100% 
09 30.11.20 140 (ЮВ) 20000 м  {снег}  10/10 300 м 
[St]
-1 -1.6 96 -3  1025.7  -1  757  306           
12 30.11.20 150 (ЮВ) 20000 м  {снег}  10/10 240 м 
[St]
-0.2 -0.9 95 -2  1023.7  -1.9  756  305           
15 30.11.20 150 (ЮВ) 20000 м    10/10 180 м 
[St]
+0 -0.5 96 -1  1022  -1.6  754  304      0.0     
18 30.11.20 150 (ЮВ) 20000 м  {снег}  10/10 240 м 
[St]
+0.3 -0.4 95 1020.1  -1.9  753  303    +0.3  0.2     
21 30.11.20 150 (ЮВ) 4000 м  слаб. снег  10/10 180 м 
[Frnb|Ns]
+0.2 -0.4 96 -1  1018.3  -1.8  752  303           
00 01.12.20 160 (Ю) 20000 м  в посл. час снег  10/10 270 м 
[St]
+0 -0.6 96 -1  1017  -1.3  751  303           
03 01.12.20 170 (Ю) 20000 м    9/9 570 м 
[Sc]
-1.8 -2.7 94 -1  1018  0.9  751  305  -2       
06 01.12.20 160 (Ю) 20000 м    9/9 450 м 
[Sc]
-1.2 -2.2 93 -2  1017.9  -0.1  751  304  -2.1    равномерный
сухой снег
100% 
09 01.12.20 170 (Ю) 9000 м  слаб. ливневой снег  10/10 420 м кучево-дожд. 
[Cb cap]
-1.4 -2.2 94 -2  1018.6  0.7  752  305           
12 01.12.20 160 (Ю) 40000 м  {ливн. осадки}  9/9 300 м 
[Sc]
-1.7 -2.7 93 -3  1018.5  -0.1  752  305           
15 01.12.20 170 (Ю) 4000 м  слаб. ливневой снег  10/10 360 м кучево-дожд. 
[Cb cap]
-1 -1.8 94 -3  1017.3  -1.1  751  304      0.4     
21 01.12.20 250 (З) 20000 м  {ливн. осадки}  9/9 300 м 
[Sc]
+0.6 -0.3 94 -1  1019.9  2.7  753  303           
00 02.12.20 240 (ЮЗ) 20000 м  {ливн. осадки}  9/9 300 м 
[Sc]
+0.4 -0.6 93 -1  1022.8  2.9  755  304           
03 02.12.20 240 (ЮЗ) 4000 м  слаб. ливневой снег  9/9 300 м кучево-дожд. 
[Cb cap]
-0.3 -1.2 94 -1  1024.5  1.6  756  305  -1    0.4     
Время (UTC), дата Ветер
(°,м/с) 
Видим.   Явления Облачность Т
(°С)
Тd
(°С)
f(%) Тe
(°С)
Pmin
(гПа)
dP
(гПа)
Po
(мм)
O2
(г/м3)
Тmin Tmax R s Состояние
почвы

Для получения пояснительной информации подведите курсор к названию столбца.

ПОГОДА Паданы - архив

Всё, что Вы хотите узнать о погоде Паданы - удобно и подробно!

Выберите нужную дату (начиная с 1 января 2019* года) и нажмите кнопку "Найти".
Будут отображены архивные сводки погоды по пункту Паданы, начиная с указанной даты.


Отображать данные в формате CSV (для использования в таблицах Excel)


Внимание! Наш архив погоды предназначен исключительно для личного некоммерческого использования в познавательных целях. Если Вам необходимы официальные справки о состоянии погоды (для производственных, юридических, коммерческих и т.п. целей), обращайтесь в органы Росгидромета.

*Примечание: данная дата относится к архиву по метеостанциям СССР (Россия, СНГ, Балтия).
Архив по метеостанциям Зарубежной Европы и Азии (кроме Китая) хранится 10 дней, по другим регионам земного шара (Китай, Африка, Америка, Австралия, Океания) - 1 день.

Паданы - район местоположения метеостанции


Название, широта, долгота, высота метеостанции:
Паданы 63.3°ш. 33.4°д. 128 м над ур. моря [Российская Федерация]

Дополнительная информация

В oтличие oт бoльшинства пoгoдных сайтoв мы публикуем пoдрoбную метеoинфoрмацию в детальнoм прoфессиoнальнoм фoрмате.

Характеристики температуры и влажнoсти вoздуха измеряются на высoте 2 м в тени вдали oт зданий и деревьев.
Скoрoсть ветра измеряется на высoте 10 м (на урoвне рoста челoвека скoрoсть ветра ниже в 1.5-2 раза). Если метеoстанция нахoдится в гoрoде или в лесу, тo скoрoсть ветра занижена на 2-4 м/с пo сравнению с oткрытым местoм. Скoрoсть ветра над акватoриями крупных рек и oзёр, а также на вершинах хoлмoв на 2-5 м/с выше, чем в oбычных услoвиях.
Атмoсфернoе давление в разных тoчках местнoсти мoжет значительнo oтличаться oт давления на метеoстанции, в зависимoсти oт услoвий рельефа (при пoдъёме на 10 м давление пoнижается примернo на 1 мм рт.ст.).